Location: NCO
(38.4404°N, 77.1340°W)
Time: 01:39:30
(UTC-04:00)

Amateur Radio Satellites - All Passes

Search period start: 23 September 2017 01:09
Search period end: 24 September 2017 01:09
Location: NCO, 38.4404°N, 77.1340°W

Satellite Date Start Highest point End Downlink Frequencies (MHz)
Time Altitude Azimuth
NANOSAT C BR1 23 Sep 01:14:20 01:18:37 88° 284° (WNW) 01:22:53 145.865
PCSat 23 Sep 01:26:02 01:31:09 43° 249° (WSW) 01:36:13 145.827
AIST 2D 23 Sep 01:28:15 01:30:11 14° 292° (WNW) 01:32:07 435.315
UKube-1 23 Sep 01:33:13 01:37:04 32° 70° (ENE) 01:40:55 .
DX 1 23 Sep 01:37:46 01:42:02 59° 74° (ENE) 01:46:18 434.975-435.025
50 SAT 23 Sep 01:40:09 01:43:27 88° 83° (E) 01:46:47 437.505
DUCHIFAT 1 23 Sep 01:43:30 01:47:34 45° 287° (WNW) 01:51:37 145.980
Tancredo 1 23 Sep 01:44:37 01:46:36 18° 28° (NNE) 01:48:34 437.200
POLYITAN 1 23 Sep 01:56:17 01:59:52 26° 291° (WNW) 02:03:27 437.675
EO-79 23 Sep 02:00:59 02:04:23 24° 291° (WNW) 02:07:47 145.935-145.965
VELOX 1 23 Sep 02:03:46 02:06:50 18° 266° (W) 02:09:54 145.980
SPROUT 23 Sep 02:12:08 02:13:00 11° 269° (W) 02:13:54 437.525
QB50P2 23 Sep 02:14:58 02:17:33 16° 294° (WNW) 02:20:07 145.880/145.840
YUBILEINY 23 Sep 02:15:32 02:20:49 18° 282° (WNW) 02:26:08 435.215
M-CUBED/EXP-1 PRIME 23 Sep 02:19:07 02:22:20 51° 290° (WNW) 02:25:30 437.505
Gurwin Techsat 1B 23 Sep 02:20:32 02:25:16 32° 97° (E) 02:29:58 435.225
BUGSAT 1 23 Sep 02:22:11 02:26:22 65° 285° (WNW) 02:30:33 437.445
O/OREOS (USA 219) 23 Sep 02:23:36 02:27:34 32° 104° (ESE) 02:31:35 437.305
nSIGHT-1 23 Sep 02:27:35 02:29:26 14° 20° (NNE) 02:31:16 .
Oscar 19 23 Sep 02:42:13 02:47:25 79° 104° (ESE) 02:52:32 437.125/150
MOZHAYETS 4 23 Sep 02:42:53 02:46:22 22° 67° (ENE) 02:49:53
ITUPSAT 1 23 Sep 03:03:13 03:07:35 37° 70° (ENE) 03:11:58 437.325
UKube-1 23 Sep 03:09:59 03:13:07 20° 265° (W) 03:16:15 .
DX 1 23 Sep 03:17:25 03:18:32 11° 269° (W) 03:19:40 434.975-435.025
Tancredo 1 23 Sep 03:18:41 03:21:12 37° 224° (SW) 03:23:44 437.200
ISS 23 Sep 03:22:10 03:25:05 28° 30° (NNE) 03:27:58 437.550
BEESAT 23 Sep 03:39:59 03:44:44 89° 248° (WSW) 03:49:33 436.000
ITAMSAT 1 23 Sep 03:46:18 03:49:59 19° 94° (E) 03:53:39 435.822/435.867
AO-7 23 Sep 03:52:02 03:59:23 34° 98° (E) 04:06:40 .
Gurwin Techsat 1B 23 Sep 04:00:31 04:05:06 30° 292° (WNW) 04:09:39 435.225
nSIGHT-1 23 Sep 04:02:59 04:06:14 72° 38° (NE) 04:09:29 .
O/OREOS (USA 219) 23 Sep 04:03:24 04:06:59 23° 300° (WNW) 04:10:37 437.305
BEESAT 3 23 Sep 04:08:10 04:10:27 15° 45° (NE) 04:12:43 437.485
MOZHAYETS 4 23 Sep 04:19:04 04:23:16 35° 263° (W) 04:27:31
Oscar 19 23 Sep 04:23:52 04:26:00 13° 299° (WNW) 04:28:08 437.125/150
RS-15 23 Sep 04:32:52 04:43:00 32° 103° (ESE) 04:53:11 29.354- 29.394
ITUPSAT 1 23 Sep 04:41:51 04:45:28 21° 265° (W) 04:49:06 437.325
CUBESAT XI-V 23 Sep 04:42:41 04:47:24 84° 76° (ENE) 04:52:07 437.345
KKS-1 23 Sep 04:44:50 04:48:41 30° 70° (ENE) 04:52:33 437.445
ISS 23 Sep 04:58:35 05:01:33 31° 226° (SW) 05:04:29 437.550
STARS 23 Sep 05:11:41 05:15:09 24° 68° (ENE) 05:18:39 437.465
ITAMSAT 1 23 Sep 05:24:40 05:29:39 47° 289° (WNW) 05:34:37 435.822/435.867
AO-85 23 Sep 05:41:07 05:45:26 47° 56° (NE) 05:50:04 145.980
nSIGHT-1 23 Sep 05:41:36 05:42:08 10° 233° (SW) 05:42:39 .
AO-7 23 Sep 05:44:24 05:52:19 51° 295° (WNW) 06:00:12 .
BEESAT 3 23 Sep 05:44:28 05:48:20 53° 243° (WSW) 05:52:07 437.485
BEESAT 2 23 Sep 05:49:57 05:53:55 49° 56° (NE) 05:57:47 435.950
DOVE 4 23 Sep 05:53:09 05:56:59 32° 97° (E) 06:00:58 437.250
XW-2B 23 Sep 06:11:31 06:12:47 11° 91° (E) 06:14:03 145.730 - 145.750
XW-2F 23 Sep 06:12:18 06:13:19 11° 91° (E) 06:14:21 145.980 - 146.000
KKS-1 23 Sep 06:21:46 06:25:13 22° 265° (W) 06:28:41 437.445
XW-2C 23 Sep 06:31:20 06:34:18 21° 95° (E) 06:37:14 145.795 - 145.815
NUDT-PHONESAT 23 Sep 06:36:35 06:39:03 17° 94° (E) 06:41:31 437.300
RS-15 23 Sep 06:42:13 06:54:28 73° 304° (NW) 07:06:51 29.354- 29.394
LilacSat-2 23 Sep 06:42:26 06:45:53 31° 97° (E) 06:49:17 437.200
STARS 23 Sep 06:47:37 06:51:21 28° 263° (W) 06:55:06 437.465
KAITUO 1B 23 Sep 07:03:09 07:06:40 38° 98° (E) 07:10:09 145.475/437.950
CUTE-I 23 Sep 07:07:42 07:12:51 47° 100° (E) 07:17:58 437.470
AO-85 23 Sep 07:22:24 07:25:34 18° 249° (WSW) 07:28:52 145.980
BEESAT 2 23 Sep 07:29:19 07:31:11 13° 252° (WSW) 07:33:01 435.950
XW-2D 23 Sep 07:31:06 07:34:51 59° 286° (WNW) 07:38:34 145.860 - 145.880
DOVE 4 23 Sep 07:31:25 07:34:30 20° 291° (WNW) 07:37:39 437.250
STRAND 1 23 Sep 07:33:34 07:38:34 63° 73° (ENE) 07:43:37 437.568
AO-7 23 Sep 07:42:05 07:43:07 10° 316° (NW) 07:44:10 .
HO-68 23 Sep 07:43:15 07:49:51 38° 98° (E) 07:56:25 435.675
XW-2B 23 Sep 07:43:33 07:47:10 42° 286° (WNW) 07:50:45 145.730 - 145.750
XW-2F 23 Sep 07:44:02 07:47:40 43° 286° (WNW) 07:51:14 145.980 - 146.000
SEEDS 23 Sep 07:59:10 08:02:44 27° 96° (E) 08:06:16 437.485
XW-2C 23 Sep 08:05:21 08:08:23 23° 290° (WNW) 08:11:25 145.795 - 145.815
NUDT-PHONESAT 23 Sep 08:09:44 08:12:56 27° 289° (WNW) 08:16:05 437.300
ZACube-1 23 Sep 08:12:26 08:13:26 11° 89° (E) 08:14:27 437.345
LilacSat-2 23 Sep 08:17:27 08:19:52 16° 292° (WNW) 08:22:17 437.200
AAUSAT CUBESAT 2 23 Sep 08:23:54 08:27:09 22° 95° (E) 08:30:21 437.432
FO-29 23 Sep 08:24:45 08:29:05 23° 67° (ENE) 08:33:10 435.910
CUTE 1.7 + AOD 2 23 Sep 08:25:32 08:29:47 85° 282° (WNW) 08:34:00 437.475
XW-2A 23 Sep 08:32:51 08:36:10 45° 99° (E) 08:39:26 145.665 - 145.685
KAITUO 1B 23 Sep 08:38:33 08:40:17 13° 293° (WNW) 08:42:00 145.475/437.950
CUBEBUG 2 23 Sep 08:48:25 08:53:08 88° 285° (WNW) 08:57:54 437.445
CUTE-I 23 Sep 08:48:36 08:52:31 21° 295° (WNW) 08:56:25 437.470
UWE-3 23 Sep 08:56:34 09:01:14 66° 101° (E) 09:05:53 435.000/436.395/437.385
RS-15 23 Sep 08:59:47 09:09:38 27° 331° (NNW) 09:19:26 29.354- 29.394
TIGRISAT 23 Sep 09:06:27 09:08:31 13° 64° (ENE) 09:10:38 435.000
STRAND 1 23 Sep 09:15:36 09:18:09 14° 269° (W) 09:20:42 437.568
HO-68 23 Sep 09:30:57 09:37:31 40° 295° (WNW) 09:44:05 435.675
SEEDS 23 Sep 09:35:00 09:38:15 22° 291° (WNW) 09:41:29 437.485
Oscar 11 23 Sep 09:42:47 09:47:08 69° 101° (E) 09:51:25 .
AO-73 23 Sep 09:42:59 09:47:35 81° 284° (WNW) 09:52:07 145.935
ZACube-1 23 Sep 09:45:32 09:50:07 67° 285° (WNW) 09:54:39 437.345
PRISM 23 Sep 09:49:01 09:52:10 22° 68° (ENE) 09:55:19 437.425
DELFI C3 23 Sep 09:57:34 10:00:26 20° 94° (E) 10:03:19 145.870
AAUSAT CUBESAT 2 23 Sep 09:59:06 10:02:32 26° 290° (WNW) 10:05:55 437.432
FO-29 23 Sep 10:08:28 10:13:59 43° 261° (W) 10:19:03 435.910
UNISAT 6 23 Sep 10:16:30 10:20:49 88° 75° (ENE) 10:25:15 437.425
EO-88 23 Sep 10:35:00 10:38:14 29° 97° (E) 10:41:26 145.990 - 145.960
UWE-3 23 Sep 10:35:05 10:37:06 13° 296° (WNW) 10:39:07 435.000/436.395/437.385
TIGRISAT 23 Sep 10:40:30 10:44:42 53° 260° (W) 10:49:02 435.000
Max Valier Satellite 23 Sep 11:06:29 11:10:13 71° 284° (WNW) 11:13:55 145.860
POLYITAN 1 23 Sep 11:12:36 11:15:06 16° 66° (ENE) 11:17:37 437.675
EO-79 23 Sep 11:16:44 11:19:29 17° 67° (ENE) 11:22:16 145.935-145.965
RS-15 23 Sep 11:20:25 11:28:20 19° 8° (N) 11:36:04 29.354- 29.394
Oscar 11 23 Sep 11:21:55 11:22:38 10° 297° (WNW) 11:23:21 .
YUBILEINY 23 Sep 11:22:33 11:28:04 19° 79° (E) 11:33:34 435.215
PRISM 23 Sep 11:23:47 11:27:17 27° 263° (W) 11:30:46 437.425
QB50P2 23 Sep 11:29:19 11:32:49 26° 69° (ENE) 11:36:21 145.880/145.840
M-CUBED/EXP-1 PRIME 23 Sep 11:31:03 11:32:39 12° 61° (ENE) 11:34:13 437.505
DELFI C3 23 Sep 11:31:52 11:35:09 26° 289° (WNW) 11:38:27 145.870
LO-87 23 Sep 11:33:13 11:35:49 18° 95° (E) 11:38:24 145.935 - 145.965
ESTCUBE 1 23 Sep 11:47:14 11:50:36 20° 94° (E) 11:53:56 437.505/2401.250
AIST 2D 23 Sep 11:59:11 12:02:37 48° 261° (W) 12:06:05 435.315
NANOSAT C BR1 23 Sep 12:04:32 12:08:36 53° 74° (ENE) 12:12:42 145.865
EO-88 23 Sep 12:09:22 12:11:37 16° 292° (WNW) 12:13:52 145.990 - 145.960
SPROUT 23 Sep 12:22:07 12:23:12 11° 91° (E) 12:24:17 437.525
Oscar 19 23 Sep 12:22:08 12:24:01 12° 60° (ENE) 12:25:53 437.125/150
DUCHIFAT 1 23 Sep 12:33:05 12:37:15 79° 257° (WSW) 12:41:28 145.980
O/OREOS (USA 219) 23 Sep 12:34:28 12:38:57 49° 65° (ENE) 12:43:24 437.305
NO-84 23 Sep 12:38:52 12:42:12 26° 128° (SE) 12:45:22 435.350 FM
POLYITAN 1 23 Sep 12:46:32 12:50:30 41° 261° (W) 12:54:32 437.675
EO-79 23 Sep 12:51:04 12:54:56 37° 262° (W) 12:58:51 145.935-145.965
M-CUBED/EXP-1 PRIME 23 Sep 13:02:21 13:06:40 61° 254° (WSW) 13:10:42 437.505
QB50P2 23 Sep 13:05:09 13:08:32 23° 265° (W) 13:11:57 145.880/145.840
LO-87 23 Sep 13:06:14 13:09:10 23° 289° (WNW) 13:12:04 145.935 - 145.965
BUGSAT 1 23 Sep 13:10:00 13:13:58 68° 75° (ENE) 13:18:00 437.445
YUBILEINY 23 Sep 13:15:01 13:23:44 81° 278° (W) 13:32:29 435.215
ESTCUBE 1 23 Sep 13:23:24 13:27:27 33° 289° (WNW) 13:31:27 437.505/2401.250
DX 1 23 Sep 13:29:46 13:30:58 11° 91° (E) 13:32:11 434.975-435.025
RS-15 23 Sep 13:34:45 13:45:47 39° 41° (NE) 13:56:16 29.354- 29.394
Gurwin Techsat 1B 23 Sep 13:40:01 13:45:01 44° 71° (ENE) 13:50:04 435.225
NANOSAT C BR1 23 Sep 13:43:19 13:44:36 11° 269° (W) 13:45:53 145.865
VELOX 1 23 Sep 13:53:22 13:57:47 89° 275° (W) 14:02:10 145.980
SPROUT 23 Sep 13:55:12 13:59:25 58° 286° (WNW) 14:03:38 437.525
Oscar 19 23 Sep 13:57:22 14:02:34 84° 256° (WSW) 14:07:48 437.125/150
O/OREOS (USA 219) 23 Sep 14:15:20 14:17:53 15° 261° (W) 14:20:25 437.305
NO-84 23 Sep 14:16:01 14:19:33 33° 321° (NW) 14:22:49 435.350 FM
PCSat 23 Sep 14:23:18 14:27:56 30° 108° (ESE) 14:32:37 145.827
SO-50 23 Sep 14:28:17 14:32:45 72° 119° (ESE) 14:37:14 436.795
50 SAT 23 Sep 14:33:58 14:37:16 78° 284° (WNW) 14:40:34 437.505
AO-7 23 Sep 14:49:19 14:56:59 43° 62° (ENE) 15:04:37 .
UKube-1 23 Sep 14:56:47 15:01:06 74° 102° (ESE) 15:05:24 .
ITAMSAT 1 23 Sep 15:02:43 15:06:57 26° 67° (ENE) 15:11:13 435.822/435.867
DX 1 23 Sep 15:03:13 15:07:29 58° 286° (WNW) 15:11:44 434.975-435.025
ITUPSAT 1 23 Sep 15:08:39 15:08:44 10° 90° (E) 15:08:50 437.325
YUBILEINY 23 Sep 15:17:22 15:21:58 15° 298° (WNW) 15:26:36 435.215
Gurwin Techsat 1B 23 Sep 15:21:11 15:25:08 21° 266° (W) 15:29:07 435.225
BEESAT 23 Sep 15:42:00 15:46:00 26° 96° (E) 15:49:56 436.000
RS-15 23 Sep 15:47:22 15:59:07 69° 246° (WSW) 16:10:14 29.354- 29.394
PCSat 23 Sep 16:06:14 16:11:11 36° 305° (NW) 16:16:11 145.827
SO-50 23 Sep 16:11:11 16:13:42 15° 317° (NW) 16:16:14 436.795
MOZHAYETS 4 23 Sep 16:14:56 16:19:32 59° 100° (E) 16:24:05
CUBESAT XI-V 23 Sep 16:41:23 16:45:01 23° 94° (E) 16:48:37 437.345
ITAMSAT 1 23 Sep 16:41:33 16:46:14 35° 262° (W) 16:50:57 435.822/435.867
AO-7 23 Sep 16:41:53 16:49:39 42° 260° (W) 16:57:27 .
ITUPSAT 1 23 Sep 16:42:14 16:47:03 76° 284° (WNW) 16:51:51 437.325
DOVE 4 23 Sep 16:57:27 17:01:13 28° 71° (ENE) 17:04:52 437.250
BEESAT 23 Sep 17:19:31 17:23:43 31° 291° (WNW) 17:27:54 436.000
LilacSat-2 23 Sep 17:23:59 17:26:02 14° 67° (ENE) 17:28:05 437.200
KAITUO 1B 23 Sep 17:42:29 17:44:47 16° 68° (ENE) 17:47:06 145.475/437.950
MOZHAYETS 4 23 Sep 17:53:51 17:56:09 14° 296° (WNW) 17:58:25
RS-15 23 Sep 18:04:50 18:09:01 13° 266° (W) 18:13:09 29.354- 29.394
XW-2D 23 Sep 18:10:17 18:13:59 48° 75° (ENE) 18:17:43 145.860 - 145.880
HO-68 23 Sep 18:11:18 18:16:50 25° 60° (ENE) 18:22:22 435.675
KKS-1 23 Sep 18:12:44 18:17:10 75° 101° (ESE) 18:21:37 437.445
CUBESAT XI-V 23 Sep 18:18:18 18:22:24 32° 290° (WNW) 18:26:28 437.345
XW-2B 23 Sep 18:22:31 18:26:20 68° 75° (ENE) 18:30:10 145.730 - 145.750
XW-2F 23 Sep 18:22:37 18:26:24 65° 75° (ENE) 18:30:13 145.980 - 146.000
CUTE-I 23 Sep 18:27:57 18:33:13 68° 74° (ENE) 18:38:29 437.470
DOVE 4 23 Sep 18:35:21 18:38:53 23° 264° (W) 18:42:18 437.250
STARS 23 Sep 18:37:25 18:41:45 55° 101° (E) 18:46:04 437.465
XW-2C 23 Sep 18:43:54 18:47:41 60° 260° (W) 18:51:31 145.795 - 145.815
NUDT-PHONESAT 23 Sep 18:46:16 18:50:00 82° 258° (WSW) 18:53:47 437.300
SEEDS 23 Sep 18:50:00 18:52:41 17° 67° (ENE) 18:55:23 437.485
LilacSat-2 23 Sep 18:56:18 18:59:56 38° 262° (W) 19:03:36 437.200
XW-2A 23 Sep 19:04:02 19:05:32 12° 67° (ENE) 19:07:03 145.665 - 145.685
AAUSAT CUBESAT 2 23 Sep 19:13:42 19:15:40 13° 66° (ENE) 19:17:37 437.432
KAITUO 1B 23 Sep 19:15:03 19:18:29 32° 263° (W) 19:21:56 145.475/437.950
CUTE 1.7 + AOD 2 23 Sep 19:16:10 19:20:20 53° 75° (ENE) 19:24:32 437.475
BEESAT 3 23 Sep 19:32:18 19:35:54 33° 114° (ESE) 19:39:33 437.485
Tancredo 1 23 Sep 19:36:34 19:39:14 73° 141° (SE) 19:41:56 437.200
BEESAT 2 23 Sep 19:41:53 19:43:22 12° 108° (ESE) 19:44:53 435.950
CUBEBUG 2 23 Sep 19:44:50 19:49:00 61° 74° (ENE) 19:53:19 437.445
STRAND 1 23 Sep 19:46:06 19:50:14 24° 95° (E) 19:54:21 437.568
XW-2D 23 Sep 19:47:55 19:48:24 10° 269° (W) 19:48:55 145.860 - 145.880
UWE-3 23 Sep 19:51:58 19:55:58 41° 72° (ENE) 20:00:07 435.000/436.395/437.385
KKS-1 23 Sep 19:52:35 19:53:05 10° 298° (WNW) 19:53:35 437.445
AO-85 23 Sep 19:55:53 19:58:31 18° 111° (ESE) 20:01:09 145.980
HO-68 23 Sep 19:56:57 20:04:00 62° 258° (WSW) 20:11:06 435.675
ISS 23 Sep 20:01:52 20:03:58 16° 130° (SE) 20:06:04 437.550
CUTE-I 23 Sep 20:11:08 20:13:42 14° 269° (W) 20:16:17 437.470
STARS 23 Sep 20:15:28 20:17:35 13° 296° (WNW) 20:19:43 437.465
SEEDS 23 Sep 20:24:03 20:28:02 39° 262° (W) 20:32:02 437.485
XW-2A 23 Sep 20:34:51 20:37:56 32° 262° (W) 20:41:03 145.665 - 145.685
Oscar 11 23 Sep 20:35:47 20:39:53 42° 73° (ENE) 20:44:00 .
AO-73 23 Sep 20:36:28 20:40:43 63° 75° (ENE) 20:45:06 145.935
ZACube-1 23 Sep 20:39:16 20:43:34 77° 77° (ENE) 20:48:01 437.345
nSIGHT-1 23 Sep 20:40:08 20:43:14 46° 136° (SE) 20:46:21 .
AAUSAT CUBESAT 2 23 Sep 20:46:38 20:50:40 49° 261° (W) 20:54:43 437.432
NO-84 23 Sep 20:50:36 20:53:34 75° 42° (NE) 20:56:24 435.350 FM
CUTE 1.7 + AOD 2 23 Sep 20:54:54 20:56:27 12° 269° (W) 20:58:01 437.475
JUGNU 23 Sep 21:01:08 21:03:19 12° 180° (S) 21:05:29 437.505
BEESAT 3 23 Sep 21:10:23 21:13:31 21° 311° (NW) 21:16:40 437.485
Tancredo 1 23 Sep 21:12:39 21:14:02 13° 336° (NNW) 21:15:26 437.200
EO-88 23 Sep 21:13:08 21:14:15 11° 66° (ENE) 21:15:21 145.990 - 145.960
BEESAT 2 23 Sep 21:16:41 21:20:37 54° 304° (NW) 21:24:36 435.950
FO-29 23 Sep 21:18:03 21:22:28 23° 96° (E) 21:27:14 435.910
STRAND 1 23 Sep 21:24:45 21:29:27 37° 290° (WNW) 21:34:10 437.568
UWE-3 23 Sep 21:30:03 21:32:38 16° 268° (W) 21:35:15 435.000/436.395/437.385
AO-85 23 Sep 21:35:05 21:38:37 33° 307° (NW) 21:42:13 145.980
ISS 23 Sep 21:37:00 21:40:09 47° 325° (NW) 21:43:21 437.550
Max Valier Satellite 23 Sep 21:43:33 21:46:58 36° 73° (ENE) 21:50:25 145.860
UNISAT 6 23 Sep 22:09:59 22:13:37 22° 94° (E) 22:17:14 437.425
Oscar 11 23 Sep 22:13:37 22:16:12 15° 268° (W) 22:18:46 .
DELFI C3 23 Sep 22:14:37 22:18:31 60° 259° (W) 22:22:25 145.870
AO-73 23 Sep 22:16:44 22:17:22 10° 271° (W) 22:18:00 145.935
nSIGHT-1 23 Sep 22:17:09 22:19:43 21° 333° (NNW) 22:22:17 .
SRMSAT 23 Sep 22:27:33 22:28:20 10° 172° (S) 22:29:07 437.500
TIGRISAT 23 Sep 22:33:08 22:37:26 35° 97° (E) 22:41:44 435.000
EO-88 23 Sep 22:43:58 22:47:28 44° 261° (W) 22:51:00 145.990 - 145.960
ESTCUBE 1 23 Sep 22:45:48 22:48:43 17° 66° (ENE) 22:51:37 437.505/2401.250
SO-50 23 Sep 23:00:49 23:05:11 42° 54° (NE) 23:09:35 436.795
FO-29 23 Sep 23:02:25 23:07:40 45° 288° (WNW) 23:13:26 435.910
PRISM 23 Sep 23:05:42 23:09:33 41° 99° (E) 23:13:23 437.425
PCSat 23 Sep 23:12:32 23:16:32 20° 48° (NE) 23:20:28 145.827
ISS 23 Sep 23:15:55 23:17:17 12° 344° (NNW) 23:18:39 437.550
Max Valier Satellite 23 Sep 23:19:16 23:20:56 13° 268° (W) 23:22:36 145.860
AIST 2D 23 Sep 23:26:56 23:28:34 13° 92° (E) 23:30:11 435.315
YUBILEINY 23 Sep 23:27:09 23:35:30 47° 76° (ENE) 23:43:50 435.215
LO-87 23 Sep 23:39:44 23:43:14 78° 257° (WSW) 23:46:47 145.935 - 145.965
UNISAT 6 23 Sep 23:46:06 23:50:21 35° 289° (WNW) 23:54:36 437.425
TIGRISAT 24 Sep 00:10:17 00:13:52 22° 292° (WNW) 00:17:29 435.000
SRMSAT 24 Sep 00:14:31 00:16:35 12° 182° (S) 00:18:38 437.500
DUCHIFAT 1 24 Sep 00:19:18 00:22:14 18° 94° (E) 00:25:09 145.980
ESTCUBE 1 24 Sep 00:20:48 00:25:07 44° 261° (W) 00:29:29 437.505/2401.250
POLYITAN 1 24 Sep 00:32:34 00:36:27 33° 97° (E) 00:40:21 437.675
EO-79 24 Sep 00:36:44 00:40:43 37° 98° (E) 00:44:40 145.935-145.965
SO-50 24 Sep 00:41:59 00:45:21 20° 249° (WSW) 00:48:44 436.795
PRISM 24 Sep 00:42:12 00:44:27 15° 294° (WNW) 00:46:43 437.425
SPROUT 24 Sep 00:46:26 00:50:40 85° 76° (ENE) 00:54:55 437.525
VELOX 1 24 Sep 00:48:42 00:53:03 66° 75° (ENE) 00:57:25 145.980
QB50P2 24 Sep 00:50:14 00:54:28 60° 100° (E) 00:58:42 145.880/145.840
PCSat 24 Sep 00:54:59 01:00:20 61° 246° (WSW) 01:05:38 145.827
BUGSAT 1 24 Sep 00:55:16 00:56:30 11° 91° (E) 00:57:46 437.445
AIST 2D 24 Sep 00:58:41 01:01:50 31° 287° (WNW) 01:04:58 435.315
50 SAT 24 Sep 01:02:31 01:05:13 23° 71° (ENE) 01:07:55 437.505
